Regional Weather Roundup
Issued by NWS Cleveland, OH

Home | Current Version | Previous Version | Graphics & Text | Print | Product List | Glossary On
Versions: 1 2 3 4 5 6 7 8 9 10 11 12 13 14 15 16 17 18 19 20 21 22 23 24 25 26 27 28 29 30 31 32 33 34 35 36 37 38 39 40 41 42 43 44 45 46 47 48 49 50
257
ASUS41 KCLE 270310
RWRCLE
OHIO REGIONAL WEATHER ROUNDUP
NATIONAL WEATHER SERVICE WILMINGTON, OH
1100 PM EDT WED APR 26 2017

NOTE: "FAIR" INDICATES FEW OR NO CLOUDS BELOW 12,000 FEET WITH NO
SIGNIFICANT WEATHER AND/OR OBSTRUCTIONS TO VISIBILITY.

OHZ001>008-015>018-024>027-034-035-043-044-270400-
   NORTHWEST OHIO

CITY           SKY/WX    TMP DP  RH WIND       PRES   REMARKS
DEFIANCE       FAIR      69  58  67 CALM      29.53F
FINDLAY        FAIR      72  50  45 S12       29.57S
TOLEDO EXPRESS FAIR      73  57  57 S5        29.55S
TOLEDO EXEC    FAIR      71  56  58 S8        29.57S
LIMA           FAIR      70  52  52 SE9       29.57F
$$

OHZ009>014-019>023-028>033-038-089-270400-
   NORTHEAST OHIO

CITY           SKY/WX    TMP DP  RH WIND       PRES   REMARKS
CLE-HOPKINS    FAIR      73  51  46 S9        29.65R
CLE-LAKEFRONT  FAIR      74  52  46 S9        29.62R
CUY CO. ARPT   PTCLDY    73  57  56 S9        29.65R
LORAIN-ELYRIA  FAIR      70  52  52 S10       29.63R
ASHTABULA      FAIR      68  56  65 SE7       29.68R
AKRON-CANTON   FAIR      68  52  56 S7        29.68R
WOOSTER        FAIR      65  51  60 S7        29.67R
MANSFIELD      FAIR      70  53  54 S10       29.65R
YOUNGSTOWN     MOCLDY    69  55  60 SE8       29.68S
$$

OHZ042-051>053-060>062-070>072-077>081-270400-
  SOUTHWEST OHIO

CITY           SKY/WX    TMP DP  RH WIND       PRES   REMARKS
CINC-COVINGTON MOCLDY    68  52  56 SE8       29.58S
CINC-LUNKEN    FAIR      64  59  83 CALM      29.58S
HAMILTON       FAIR      67  53  61 E3        29.58F
DAYTON         MOCLDY    72  48  42 S9        29.59F
WRIGHT-PAT AFB FAIR      71  47  43 SE6       29.59F
DAYTON GENERAL FAIR      71  50  47 SE8       29.58F
WILMINGTON     FAIR      65  54  67 SE6       29.61S
$$

OHZ036-037-039>041-045>050-054>059-063>069-073>076-082>088-270400-
  CENTRAL AND SOUTHEAST OHIO

CITY           SKY/WX    TMP DP  RH WIND       PRES   REMARKS
COLUMBUS       MOCLDY    72  53  51 SE5       29.62R
OSU AIRPORT    FAIR      72  53  51 SE5       29.62S
BOLTON FIELD   FAIR      69  51  54 S5        29.63S
RICKENBACK AFB FAIR      69  53  56 SE5       29.62S
NEWARK         FAIR      71  50  47 S3        29.64R
MARION         FAIR      70  50  49 S8        29.62S
LANCASTER      FAIR      70  54  56 SE7       29.64S
ZANESVILLE     FAIR      69  51  52 SE5       29.66R
NEW PHILLY     FAIR      63  54  72 SE6       29.67R
$$




USA.gov is the U.S. government's official web portal to all federal, state and local government web resources and services.